Printer-friendly version

IAU Minor Planet Center

Minor Planet Center

MPEC 2005-S67 : 2005 SR9

The following Minor Planet Electronic Circular may be linked-to from your own Web pages, but must not otherwise be redistributed electronically.


Read MPEC 2005-S66 Read MPEC 2005-S68


M.P.E.C. 2005-S67                                Issued 2005 Sept. 27, 16:26 UT

     The Minor Planet Electronic Circulars contain information on unusual
         minor planets and routine data on comets.  They are published
   on behalf of Commission 20 of the International Astronomical Union by the
          Minor Planet Center, Smithsonian Astrophysical Observatory,
                          Cambridge, MA 02138, U.S.A.

                  Supported in part by the Brinson Foundation
             Prepared using the Tamkin Foundation Computer Network

                              MPC@CFA.HARVARD.EDU
          URL http://cfa-www.harvard.edu/iau/mpc.html  ISSN 1523-6714

                                   2005 SR9

Observations:
     K05S09R* C2005 09 26.43594 02 08 53.10 +01 08 25.2          21.7 V ES067291
     K05S09R  C2005 09 26.43975 02 08 53.35 +01 08 15.5          21.9 V ES067291
     K05S09R  C2005 09 26.44377 02 08 53.63 +01 08 06.0          21.9 V ES067291
     K05S09R HC2005 09 26.50304 02 08 57.53 +01 05 37.6                 ES067291
     K05S09R HC2005 09 26.50686 02 08 57.77 +01 05 26.9                 ES067291
     K05S09R  C2005 09 27.29208 02 09 54.57 +00 32 13.0          21.8 V ES067291
     K05S09R  C2005 09 27.29591 02 09 54.82 +00 32 03.2          21.8 V ES067291
     K05S09R  C2005 09 27.29981 02 09 55.08 +00 31 52.2          22.4 V ES067291

Observer details:
291 LPL/Spacewatch II.  Observer T. H. Bressi.  1.8-m f/2.7 reflector + CCD.

Orbital elements:
2005 SR9
Epoch 2005 Aug. 18.0 TT = JDT 2453600.5                 MPC
M 328.21604              (2000.0)            P               Q
n   0.25751091     Peri.  260.24030     +0.13025660     -0.99135671
a   2.4468403      Node   182.44478     +0.99084965     +0.13072061
e   0.5313109      Incl.   21.53124     +0.03535810     -0.01113514
P   3.83           H   21.5           G   0.15           U   9
Residuals in seconds of arc
050926 291  0.1-  0.1-    050926 291  0.1+  0.5+    050927 291  0.0   0.3+
050926 291  0.1-  0.2-    050926 291  0.1-  0.6-    050927 291  0.0   0.6-
050926 291  0.2+  0.3+    050927 291  0.0   0.3+

Ephemeris:
2005 SR9                 a,e,i = 2.45, 0.53, 22                  q = 1.1468
Date    TT    R. A. (2000) Decl.     Delta      r     Elong.  Phase     V
2005 09 27    02 09.56   +00 44.9    0.518    1.477   151.2    19.1    21.9
2005 10 07    02 21.07   -07 26.1    0.446    1.414   154.0    18.0    21.4
2005 10 17    02 32.32   -17 26.3    0.400    1.355   148.9    22.3    21.2
2005 10 27    02 43.86   -28 02.0    0.378    1.300   138.2    30.6    21.3
2005 11 06    02 56.46   -37 35.1    0.376    1.252   126.4    39.6    21.4
2005 11 16    03 11.21   -44 59.2    0.387    1.211   116.2    47.1    21.6
2005 11 26    03 28.85   -50 00.3    0.403    1.179   108.6    52.5    21.8
2005 12 06    03 49.57   -52 49.8    0.419    1.158   103.6    55.8    22.0

Kyle E. Smalley              (C) Copyright 2005 MPC           M.P.E.C. 2005-S67

Read MPEC 2005-S66 Read MPEC 2005-S68


Our Web policy. Index to the CBAT/MPC/ICQ pages.


Valid HTML 4.01!